Weather History for KRBD - November, 2013

Change the Weather History Date:

Friday, November 1, 2013

  Actual Average Record
Temperature  
Mean Temperature 63 °F -  
Max Temperature 75 °F 68 °F 88 °F (2012)
Min Temperature 53 °F 51 °F 41 °F (2014)
Degree Days  
Heating Degree Days 2    
Growing Degree Days 13 (Base 50)    
Moisture  
Dew Point 46 °F    
Average Humidity 54    
Maximum Humidity 71    
Minimum Humidity 40    
Precipitation  
Precipitation 0.00 in - - ()
Sea Level Pressure  
Sea Level Pressure 29.88 in    
Wind  
Wind Speed 6 mph (SSW)    
Max Wind Speed 16 mph    
Max Gust Speed 22 mph    
Visibility 10 miles    
Events      
Averages and records for this station are not official NWS values.
T = Trace of Precipitation, MM = Missing Value Source: NWS Daily Summary

Daily Weather History Graph

Daily Weather History Graph

Search for Another Location

Airport or City:

Trip Planner

Search our weather history database for the weather conditions in past years. The results will help you decide how hot, cold, wet, or windy it might be!

Date:

Astronomy

Nov. 01, 2013 Rise Set
Actual Time 7:45 AM CDT 6:36 PM CDT
Civil Twilight 7:19 AM CDT 7:01 PM CDT
Nautical Twilight 6:50 AM CDT 7:30 PM CDT
Astronomical Twilight 6:21 AM CDT 7:59 PM CDT
Moon 5:44 AM CDT (11/1) 5:25 PM CDT (11/1)
Length of Visible Light 11h 41m
Length of Day
10h 51m
Waning Crescent, 4% of the Moon is Illuminated
Nov 1
Waning Crescent
Nov 3
New
Nov 9
First Quarter
Nov 17
Full
Nov 25
Last Quarter

Hourly Weather History & Observations

Time (CDT) Temp. Dew Point Humidity Pressure Visibility Wind Dir Wind Speed Gust Speed Precip Events Conditions
12:53 AM 55.0 °F 45.0 °F 69% 29.86 in 10.0 mi SSW 3.5 mph - N/A   Clear
1:53 AM 53.1 °F 44.1 °F 71% 29.85 in 10.0 mi SSW 3.5 mph - N/A   Clear
2:53 AM 53.1 °F 44.1 °F 71% 29.84 in 10.0 mi Calm Calm - N/A   Clear
3:53 AM 55.0 °F 44.1 °F 67% 29.84 in 10.0 mi SSW 3.5 mph - N/A   Clear
4:53 AM 55.9 °F 44.1 °F 64% 29.83 in 10.0 mi South 4.6 mph - N/A   Clear
5:53 AM 55.0 °F 43.0 °F 64% 29.83 in 10.0 mi South 4.6 mph - N/A   Clear
6:53 AM 55.0 °F 43.0 °F 64% 29.84 in 10.0 mi South 3.5 mph - N/A   Clear
7:53 AM 54.0 °F 44.1 °F 69% 29.86 in 10.0 mi South 4.6 mph - N/A   Clear
8:53 AM 57.9 °F 46.0 °F 65% 29.87 in 10.0 mi SSE 3.5 mph - N/A   Clear
9:53 AM 63.0 °F 46.0 °F 54% 29.88 in 10.0 mi SSE 8.1 mph - N/A   Clear
10:53 AM 66.9 °F 44.1 °F 44% 29.88 in 10.0 mi SSE 11.5 mph - N/A   Clear
11:53 AM 69.1 °F 46.0 °F 44% 29.86 in 10.0 mi SSE 16.1 mph 21.9 mph N/A   Clear
12:53 PM 72.0 °F 48.0 °F 43% 29.85 in 10.0 mi SSE 10.4 mph 19.6 mph N/A   Clear
1:53 PM 73.0 °F 48.0 °F 41% 29.82 in 10.0 mi Variable 5.8 mph 17.3 mph N/A   Clear
2:53 PM 73.9 °F 48.0 °F 40% 29.81 in 10.0 mi South 8.1 mph - N/A   Clear
3:53 PM 73.9 °F 48.9 °F 41% 29.81 in 10.0 mi Calm Calm - N/A   Mostly Cloudy
4:53 PM 73.9 °F 48.0 °F 40% 29.82 in 10.0 mi North 5.8 mph - N/A   Mostly Cloudy
5:53 PM 70.0 °F 48.0 °F 46% 29.85 in 10.0 mi NNW 10.4 mph - N/A   Partly Cloudy
6:53 PM 66.9 °F 46.9 °F 49% 29.89 in 10.0 mi NNW 8.1 mph - N/A   Partly Cloudy
7:53 PM 66.0 °F 46.9 °F 50% 29.94 in 10.0 mi NNW 6.9 mph - N/A   Clear
8:53 PM 64.9 °F 48.0 °F 54% 29.98 in 10.0 mi NNW 6.9 mph - N/A   Clear
9:53 PM 64.9 °F 46.0 °F 50% 30.01 in 10.0 mi NNW 10.4 mph - N/A   Clear
10:53 PM 64.0 °F 42.1 °F 45% 30.05 in 10.0 mi North 13.8 mph - N/A   Clear
11:53 PM 62.1 °F 41.0 °F 46% 30.08 in 10.0 mi NNW 10.4 mph 19.6 mph N/A   Clear